Year,Month,Day,Hour,Minute,Value (Times are PST for temperature in C)
2018,01,15,00,00,7.80
2018,01,15,00,01,7.80
2018,01,15,00,02,7.80
2018,01,15,00,03,7.80
2018,01,15,00,04,7.80
2018,01,15,00,05,7.80
2018,01,15,00,06,7.80
2018,01,15,00,07,7.80
2018,01,15,00,08,7.70
2018,01,15,00,09,7.70
2018,01,15,00,10,7.80
2018,01,15,00,11,7.80
2018,01,15,00,12,7.80
2018,01,15,00,13,7.80
2018,01,15,00,14,7.90
2018,01,15,00,15,7.90
2018,01,15,00,16,8.00
2018,01,15,00,17,8.00
2018,01,15,00,18,8.00
2018,01,15,00,19,8.00
2018,01,15,00,20,7.90
2018,01,15,00,21,7.90
2018,01,15,00,22,8.00
2018,01,15,00,23,8.00
2018,01,15,00,24,8.00
2018,01,15,00,25,7.90
2018,01,15,00,26,7.90
2018,01,15,00,27,7.90
2018,01,15,00,28,7.90
2018,01,15,00,29,7.90
2018,01,15,00,30,7.90
2018,01,15,00,31,7.90
2018,01,15,00,32,7.90
2018,01,15,00,33,7.90
2018,01,15,00,34,7.90
2018,01,15,00,35,7.90
2018,01,15,00,36,7.90
2018,01,15,00,37,7.90
2018,01,15,00,38,7.90
2018,01,15,00,39,7.80
2018,01,15,00,40,7.80
2018,01,15,00,41,7.80
2018,01,15,00,42,7.80
2018,01,15,00,43,7.80
2018,01,15,00,44,7.80
2018,01,15,00,45,7.80
2018,01,15,00,46,7.80
2018,01,15,00,47,7.80
2018,01,15,00,48,7.80
2018,01,15,00,49,7.80
2018,01,15,00,50,7.80
2018,01,15,00,51,7.80
2018,01,15,00,52,7.70
2018,01,15,00,53,7.70
2018,01,15,00,54,7.70
2018,01,15,00,55,7.70
2018,01,15,00,56,7.70
2018,01,15,00,57,7.70
2018,01,15,00,58,7.70
2018,01,15,00,59,7.70
2018,01,15,01,00,7.70
2018,01,15,01,01,7.70
2018,01,15,01,02,7.60
2018,01,15,01,03,7.60
2018,01,15,01,04,7.60
2018,01,15,01,05,7.60
2018,01,15,01,06,7.60
2018,01,15,01,07,7.60
2018,01,15,01,08,7.60
2018,01,15,01,09,7.60
2018,01,15,01,10,7.60
2018,01,15,01,11,7.60
2018,01,15,01,12,7.60
2018,01,15,01,13,7.60
2018,01,15,01,14,7.60
2018,01,15,01,15,7.60
2018,01,15,01,16,7.60
2018,01,15,01,17,7.60
2018,01,15,01,18,7.50
2018,01,15,01,19,7.50
2018,01,15,01,20,7.50
2018,01,15,01,21,7.50
2018,01,15,01,22,7.50
2018,01,15,01,23,7.50
2018,01,15,01,24,7.60
2018,01,15,01,25,7.60
2018,01,15,01,26,7.60
2018,01,15,01,27,7.60
2018,01,15,01,28,7.50
2018,01,15,01,29,7.50
2018,01,15,01,30,7.50
2018,01,15,01,31,7.50
2018,01,15,01,32,7.40
2018,01,15,01,33,7.40
2018,01,15,01,34,7.40
2018,01,15,01,35,7.40
2018,01,15,01,36,7.40
2018,01,15,01,37,7.40
2018,01,15,01,38,7.40
2018,01,15,01,39,7.50
2018,01,15,01,40,7.50
2018,01,15,01,41,7.40
2018,01,15,01,42,7.40
2018,01,15,01,43,7.40
2018,01,15,01,44,7.40
2018,01,15,01,45,7.30
2018,01,15,01,46,7.30
2018,01,15,01,47,7.30
2018,01,15,01,48,7.30
2018,01,15,01,49,7.30
2018,01,15,01,50,7.30
2018,01,15,01,51,7.30
2018,01,15,01,52,7.30
2018,01,15,01,53,7.30
2018,01,15,01,54,7.30
2018,01,15,01,55,7.30
2018,01,15,01,56,7.30
2018,01,15,01,57,7.30
2018,01,15,01,58,7.30
2018,01,15,01,59,7.30
2018,01,15,02,00,7.30
2018,01,15,02,01,7.30
2018,01,15,02,02,7.30
2018,01,15,02,03,7.30
2018,01,15,02,04,7.30
2018,01,15,02,05,7.30
2018,01,15,02,06,7.30
2018,01,15,02,07,7.30
2018,01,15,02,08,7.30
2018,01,15,02,09,7.30
2018,01,15,02,10,7.30
2018,01,15,02,11,7.30
2018,01,15,02,12,7.30
2018,01,15,02,13,7.30
2018,01,15,02,14,7.30
2018,01,15,02,15,7.30
2018,01,15,02,16,7.30
2018,01,15,02,17,7.30
2018,01,15,02,18,7.30
2018,01,15,02,19,7.30
2018,01,15,02,20,7.30
2018,01,15,02,21,7.30
2018,01,15,02,22,7.30
2018,01,15,02,23,7.30
2018,01,15,02,24,7.30
2018,01,15,02,25,7.30
2018,01,15,02,26,7.30
2018,01,15,02,27,7.30
2018,01,15,02,28,7.30
2018,01,15,02,29,7.30
2018,01,15,02,30,7.30
2018,01,15,02,31,7.30
2018,01,15,02,32,7.30
2018,01,15,02,33,7.30
2018,01,15,02,34,7.20
2018,01,15,02,35,7.20
2018,01,15,02,36,7.20
2018,01,15,02,37,7.30
2018,01,15,02,38,7.30
2018,01,15,02,39,7.30
2018,01,15,02,40,7.40
2018,01,15,02,41,7.50
2018,01,15,02,42,7.50
2018,01,15,02,43,7.50
2018,01,15,02,44,7.50
2018,01,15,02,45,7.40
2018,01,15,02,46,7.40
2018,01,15,02,47,7.50
2018,01,15,02,48,7.50
2018,01,15,02,49,7.50
2018,01,15,02,50,7.50
2018,01,15,02,51,7.50
2018,01,15,02,52,7.50
2018,01,15,02,53,7.50
2018,01,15,02,54,7.50
2018,01,15,02,55,7.50
2018,01,15,02,56,7.50
2018,01,15,02,57,7.60
2018,01,15,02,58,7.60
2018,01,15,02,59,7.60
2018,01,15,03,00,7.70
2018,01,15,03,01,7.80
2018,01,15,03,02,7.80
2018,01,15,03,03,7.80
2018,01,15,03,04,7.90
2018,01,15,03,05,7.80
2018,01,15,03,06,7.80
2018,01,15,03,07,7.80
2018,01,15,03,08,7.80
2018,01,15,03,09,7.80
2018,01,15,03,10,7.80
2018,01,15,03,11,7.80
2018,01,15,03,12,7.90
2018,01,15,03,13,7.90
2018,01,15,03,14,7.90
2018,01,15,03,15,7.90
2018,01,15,03,16,8.00
2018,01,15,03,17,8.00
2018,01,15,03,18,8.00
2018,01,15,03,19,8.00
2018,01,15,03,20,8.00
2018,01,15,03,21,8.00
2018,01,15,03,22,7.90
2018,01,15,03,23,7.90
2018,01,15,03,24,7.90
2018,01,15,03,25,7.90
2018,01,15,03,26,7.90
2018,01,15,03,27,7.90
2018,01,15,03,28,7.90
2018,01,15,03,29,7.90
2018,01,15,03,30,7.80
2018,01,15,03,31,7.80
2018,01,15,03,32,7.80
2018,01,15,03,33,7.80
2018,01,15,03,34,7.80
2018,01,15,03,35,7.80
2018,01,15,03,36,7.80
2018,01,15,03,37,7.80
2018,01,15,03,38,7.80
2018,01,15,03,39,7.80
2018,01,15,03,40,7.80
2018,01,15,03,41,7.80
2018,01,15,03,42,7.90
2018,01,15,03,43,7.90
2018,01,15,03,44,7.90
2018,01,15,03,45,7.90
2018,01,15,03,46,7.90
2018,01,15,03,47,7.90
2018,01,15,03,48,8.00
2018,01,15,03,49,8.00
2018,01,15,03,50,8.10
2018,01,15,03,51,8.10
2018,01,15,03,52,8.20
2018,01,15,03,53,8.10
2018,01,15,03,54,8.10
2018,01,15,03,55,8.10
2018,01,15,03,56,8.10
2018,01,15,03,57,8.10
2018,01,15,03,58,8.10
2018,01,15,03,59,8.10
2018,01,15,04,00,8.10
2018,01,15,04,01,8.10
2018,01,15,04,02,8.10
2018,01,15,04,03,8.20
2018,01,15,04,04,8.20
2018,01,15,04,05,8.30
2018,01,15,04,06,8.30
2018,01,15,04,07,8.30
2018,01,15,04,08,8.30
2018,01,15,04,09,8.30
2018,01,15,04,10,8.30
2018,01,15,04,11,8.30
2018,01,15,04,12,8.20
2018,01,15,04,13,8.20
2018,01,15,04,14,8.20
2018,01,15,04,15,8.10
2018,01,15,04,16,8.10
2018,01,15,04,17,8.10
2018,01,15,04,18,8.00
2018,01,15,04,19,8.00
2018,01,15,04,20,7.90
2018,01,15,04,21,7.90
2018,01,15,04,22,7.90
2018,01,15,04,23,7.90
2018,01,15,04,24,7.90
2018,01,15,04,25,7.90
2018,01,15,04,26,7.90
2018,01,15,04,27,7.90
2018,01,15,04,28,7.90
2018,01,15,04,29,7.80
2018,01,15,04,30,7.80
2018,01,15,04,31,7.80
2018,01,15,04,32,7.70
2018,01,15,04,33,7.70
2018,01,15,04,34,7.70
2018,01,15,04,35,7.60
2018,01,15,04,36,7.60
2018,01,15,04,37,7.60
2018,01,15,04,38,7.60
2018,01,15,04,39,7.50
2018,01,15,04,40,7.40
2018,01,15,04,41,7.40
2018,01,15,04,42,7.40
2018,01,15,04,43,7.30
2018,01,15,04,44,7.30
2018,01,15,04,45,7.30
2018,01,15,04,46,7.30
2018,01,15,04,47,7.30
2018,01,15,04,48,7.30
2018,01,15,04,49,7.30
2018,01,15,04,50,7.30
2018,01,15,04,51,7.30
2018,01,15,04,52,7.30
2018,01,15,04,53,7.30
2018,01,15,04,54,7.30
2018,01,15,04,55,7.20
2018,01,15,04,56,7.20
2018,01,15,04,57,7.20
2018,01,15,04,58,7.10
2018,01,15,04,59,7.10
2018,01,15,05,00,7.10
2018,01,15,05,01,7.10
2018,01,15,05,02,7.10
2018,01,15,05,03,7.10
2018,01,15,05,04,7.10
2018,01,15,05,05,7.10
2018,01,15,05,06,7.00
2018,01,15,05,07,7.00
2018,01,15,05,08,7.00
2018,01,15,05,09,7.00
2018,01,15,05,10,7.00
2018,01,15,05,11,6.90
2018,01,15,05,12,6.90
2018,01,15,05,13,6.80
2018,01,15,05,14,6.80
2018,01,15,05,15,6.80
2018,01,15,05,16,6.80
2018,01,15,05,17,6.70
2018,01,15,05,18,6.70
2018,01,15,05,19,6.70
2018,01,15,05,20,6.70
2018,01,15,05,21,6.60
2018,01,15,05,22,6.60
2018,01,15,05,23,6.50
2018,01,15,05,24,6.50
2018,01,15,05,25,6.50
2018,01,15,05,26,6.50
2018,01,15,05,27,6.50
2018,01,15,05,28,6.50
2018,01,15,05,29,6.40
2018,01,15,05,30,6.40
2018,01,15,05,31,6.40
2018,01,15,05,32,6.40
2018,01,15,05,33,6.40
2018,01,15,05,34,6.40
2018,01,15,05,35,6.40
2018,01,15,05,36,6.50
2018,01,15,05,37,6.50
2018,01,15,05,38,6.50
2018,01,15,05,39,6.60
2018,01,15,05,40,6.60
2018,01,15,05,41,6.60
2018,01,15,05,42,6.60
2018,01,15,05,43,6.60
2018,01,15,05,44,6.50
2018,01,15,05,45,6.40
2018,01,15,05,46,6.40
2018,01,15,05,47,6.40
2018,01,15,05,48,6.40
2018,01,15,05,49,6.40
2018,01,15,05,50,6.40
2018,01,15,05,51,6.30
2018,01,15,05,52,6.30
2018,01,15,05,53,6.30
2018,01,15,05,54,6.30
2018,01,15,05,55,6.40
2018,01,15,05,56,6.50
2018,01,15,05,57,6.60
2018,01,15,05,58,6.60
2018,01,15,05,59,6.60
2018,01,15,06,00,6.60
2018,01,15,06,01,6.60
2018,01,15,06,02,6.60
2018,01,15,06,03,6.60
2018,01,15,06,04,6.60
2018,01,15,06,05,6.70
2018,01,15,06,06,6.60
2018,01,15,06,07,6.60
2018,01,15,06,08,6.60
2018,01,15,06,09,6.60
2018,01,15,06,10,6.60
2018,01,15,06,11,6.70
2018,01,15,06,12,6.70
2018,01,15,06,13,6.70
2018,01,15,06,14,6.70
2018,01,15,06,15,6.70
2018,01,15,06,16,6.70
2018,01,15,06,17,6.60
2018,01,15,06,18,6.60
2018,01,15,06,19,6.50
2018,01,15,06,20,6.50
2018,01,15,06,21,6.50
2018,01,15,06,22,6.50
2018,01,15,06,23,6.60
2018,01,15,06,24,6.70
2018,01,15,06,25,6.70
2018,01,15,06,26,6.70
2018,01,15,06,27,6.70
2018,01,15,06,28,6.70
2018,01,15,06,29,6.70
2018,01,15,06,30,6.80
2018,01,15,06,31,6.80
2018,01,15,06,32,6.80
2018,01,15,06,33,6.80
2018,01,15,06,34,6.80
2018,01,15,06,35,6.80
2018,01,15,06,36,6.80
2018,01,15,06,37,6.80
2018,01,15,06,38,6.80
2018,01,15,06,39,6.80
2018,01,15,06,40,6.80
2018,01,15,06,41,6.80
2018,01,15,06,42,6.80
2018,01,15,06,43,6.80
2018,01,15,06,44,6.80
2018,01,15,06,45,6.80
2018,01,15,06,46,6.80
2018,01,15,06,47,6.90
2018,01,15,06,48,7.00
2018,01,15,06,49,7.10
2018,01,15,06,50,7.20
2018,01,15,06,51,7.30
2018,01,15,06,52,7.30
2018,01,15,06,53,7.30
2018,01,15,06,54,7.30
2018,01,15,06,55,7.30
2018,01,15,06,56,7.30
2018,01,15,06,57,7.30
2018,01,15,06,58,7.30
2018,01,15,06,59,7.40
2018,01,15,07,00,7.40
2018,01,15,07,01,7.50
2018,01,15,07,02,7.50
2018,01,15,07,03,7.50
2018,01,15,07,04,7.50
2018,01,15,07,05,7.50
2018,01,15,07,06,7.50
2018,01,15,07,07,7.50
2018,01,15,07,08,7.40
2018,01,15,07,09,7.40
2018,01,15,07,10,7.40
2018,01,15,07,11,7.40
2018,01,15,07,12,7.40
2018,01,15,07,13,7.30
2018,01,15,07,14,7.30
2018,01,15,07,15,7.30
2018,01,15,07,16,7.30
2018,01,15,07,17,7.30
2018,01,15,07,18,7.30
2018,01,15,07,19,7.30
2018,01,15,07,20,7.30
2018,01,15,07,21,7.30
2018,01,15,07,22,7.30
2018,01,15,07,23,7.20
2018,01,15,07,24,7.20
2018,01,15,07,25,7.20
2018,01,15,07,26,7.20
2018,01,15,07,27,7.10
2018,01,15,07,28,7.10
2018,01,15,07,29,7.10
2018,01,15,07,30,7.00
2018,01,15,07,31,7.00
2018,01,15,07,32,7.10
2018,01,15,07,33,7.10
2018,01,15,07,34,7.10
2018,01,15,07,35,7.10
2018,01,15,07,36,7.10
2018,01,15,07,37,7.00
2018,01,15,07,38,7.00
2018,01,15,07,39,7.10
2018,01,15,07,40,7.10
2018,01,15,07,41,7.10
2018,01,15,07,42,7.10
2018,01,15,07,43,7.00
2018,01,15,07,44,7.00
2018,01,15,07,45,7.10
2018,01,15,07,46,7.10
2018,01,15,07,47,7.10
2018,01,15,07,48,7.10
2018,01,15,07,49,7.00
2018,01,15,07,50,7.10
2018,01,15,07,51,7.10
2018,01,15,07,52,7.10
2018,01,15,07,53,7.20
2018,01,15,07,54,7.20
2018,01,15,07,55,7.20
2018,01,15,07,56,7.30
2018,01,15,07,57,7.30
2018,01,15,07,58,7.30
2018,01,15,07,59,7.30
2018,01,15,08,00,7.20
2018,01,15,08,01,7.20
2018,01,15,08,02,7.20
2018,01,15,08,03,7.30
2018,01,15,08,04,7.20
2018,01,15,08,05,7.30
2018,01,15,08,06,7.30
2018,01,15,08,07,7.30
2018,01,15,08,08,7.30
2018,01,15,08,09,7.30
2018,01,15,08,10,7.30
2018,01,15,08,11,7.30
2018,01,15,08,12,7.30
2018,01,15,08,13,7.30
2018,01,15,08,14,7.30
2018,01,15,08,15,7.30
2018,01,15,08,16,7.30
2018,01,15,08,17,7.30
2018,01,15,08,18,7.20
2018,01,15,08,19,7.20
2018,01,15,08,20,7.20
2018,01,15,08,21,7.20
2018,01,15,08,22,7.10
2018,01,15,08,23,7.10
2018,01,15,08,24,7.00
2018,01,15,08,25,7.00
2018,01,15,08,26,7.00
2018,01,15,08,27,6.90
2018,01,15,08,28,6.90
2018,01,15,08,29,6.90
2018,01,15,08,30,6.90
2018,01,15,08,31,6.90
2018,01,15,08,32,6.90
2018,01,15,08,33,6.90
2018,01,15,08,34,6.90
2018,01,15,08,35,6.90
2018,01,15,08,36,6.90
2018,01,15,08,37,6.80
2018,01,15,08,38,6.80
2018,01,15,08,39,6.80
2018,01,15,08,40,6.80
2018,01,15,08,41,6.80
2018,01,15,08,42,6.70
2018,01,15,08,43,6.70
2018,01,15,08,44,6.70
2018,01,15,08,45,6.70
2018,01,15,08,46,6.70
2018,01,15,08,47,6.70
2018,01,15,08,48,6.70
2018,01,15,08,49,6.70
2018,01,15,08,50,6.60
2018,01,15,08,51,6.60
2018,01,15,08,52,6.60
2018,01,15,08,53,6.50
2018,01,15,08,54,6.50
2018,01,15,08,55,6.50
2018,01,15,08,56,6.40
2018,01,15,08,57,6.40
2018,01,15,08,58,6.40
2018,01,15,08,59,6.40
2018,01,15,09,00,6.40
2018,01,15,09,01,6.40
2018,01,15,09,02,6.40
2018,01,15,09,03,6.40
2018,01,15,09,04,6.40
2018,01,15,09,05,6.50
2018,01,15,09,06,6.60
2018,01,15,09,07,6.60
2018,01,15,09,08,6.50
2018,01,15,09,09,6.50
2018,01,15,09,10,6.40
2018,01,15,09,11,6.50
2018,01,15,09,12,6.50
2018,01,15,09,13,6.60
2018,01,15,09,14,6.70
2018,01,15,09,15,6.70
2018,01,15,09,16,6.70
2018,01,15,09,17,6.70
2018,01,15,09,18,6.70
2018,01,15,09,19,6.70
2018,01,15,09,20,6.70
2018,01,15,09,21,6.70
2018,01,15,09,22,6.70
2018,01,15,09,23,6.70
2018,01,15,09,24,6.80
2018,01,15,09,25,6.90
2018,01,15,09,26,7.00
2018,01,15,09,27,7.10
2018,01,15,09,28,7.10
2018,01,15,09,29,7.10
2018,01,15,09,30,7.00
2018,01,15,09,31,7.10
2018,01,15,09,32,7.00
2018,01,15,09,33,7.00
2018,01,15,09,34,7.00
2018,01,15,09,35,7.00
2018,01,15,09,36,6.90
2018,01,15,09,37,6.90
2018,01,15,09,38,6.90
2018,01,15,09,39,6.90
2018,01,15,09,40,7.00
2018,01,15,09,41,7.00
2018,01,15,09,42,7.10
2018,01,15,09,43,7.10
2018,01,15,09,44,7.10
2018,01,15,09,45,7.10
2018,01,15,09,46,7.10
2018,01,15,09,47,7.10
2018,01,15,09,48,7.10
2018,01,15,09,49,7.10
2018,01,15,09,50,7.10
2018,01,15,09,51,7.10
2018,01,15,09,52,7.10
2018,01,15,09,53,7.20
2018,01,15,09,54,7.20
2018,01,15,09,55,7.20
2018,01,15,09,56,7.30
2018,01,15,09,57,7.30
2018,01,15,09,58,7.30
2018,01,15,09,59,7.40
2018,01,15,10,00,7.40
2018,01,15,10,01,7.40
2018,01,15,10,02,7.40
2018,01,15,10,03,7.50
2018,01,15,10,04,7.50
2018,01,15,10,05,7.60
2018,01,15,10,06,7.60
2018,01,15,10,07,7.60
2018,01,15,10,08,7.70
2018,01,15,10,09,7.70
2018,01,15,10,10,7.70
2018,01,15,10,11,7.70
2018,01,15,10,12,7.70
2018,01,15,10,13,7.70
2018,01,15,10,14,7.70
2018,01,15,10,15,7.70
2018,01,15,10,16,7.70
2018,01,15,10,17,7.70
2018,01,15,10,18,7.70
2018,01,15,10,19,7.70
2018,01,15,10,20,7.70
2018,01,15,10,21,7.70
2018,01,15,10,22,7.70
2018,01,15,10,23,7.80
2018,01,15,10,24,7.90
2018,01,15,10,25,7.90
2018,01,15,10,26,8.00
2018,01,15,10,27,8.10
2018,01,15,10,28,8.10
2018,01,15,10,29,8.10
2018,01,15,10,30,8.10
2018,01,15,10,31,8.10
2018,01,15,10,32,8.20
2018,01,15,10,33,8.20
2018,01,15,10,34,8.20
2018,01,15,10,35,8.20
2018,01,15,10,36,8.20
2018,01,15,10,37,8.20
2018,01,15,10,38,8.20
2018,01,15,10,39,8.20
2018,01,15,10,40,8.20
2018,01,15,10,41,8.20
2018,01,15,10,42,8.20
2018,01,15,10,43,8.20
2018,01,15,10,44,8.20
2018,01,15,10,45,8.20
2018,01,15,10,46,8.20
2018,01,15,10,47,8.20
2018,01,15,10,48,8.20
2018,01,15,10,49,8.20
2018,01,15,10,50,8.20
2018,01,15,10,51,8.20
2018,01,15,10,52,8.20
2018,01,15,10,53,8.20
2018,01,15,10,54,8.20
2018,01,15,10,55,8.20
2018,01,15,10,56,8.20
2018,01,15,10,57,8.20
2018,01,15,10,58,8.20
2018,01,15,10,59,8.20
2018,01,15,11,00,8.20
2018,01,15,11,01,8.20
2018,01,15,11,02,8.20
2018,01,15,11,03,8.20
2018,01,15,11,04,8.20
2018,01,15,11,05,8.20
2018,01,15,11,06,8.20
2018,01,15,11,07,8.20
2018,01,15,11,08,8.20
2018,01,15,11,09,8.20
2018,01,15,11,10,8.20
2018,01,15,11,11,8.20
2018,01,15,11,12,8.20
2018,01,15,11,13,8.20
2018,01,15,11,14,8.20
2018,01,15,11,15,8.20
2018,01,15,11,16,8.20
2018,01,15,11,17,8.20
2018,01,15,11,18,8.20
2018,01,15,11,19,8.20
2018,01,15,11,20,8.20
2018,01,15,11,21,8.20
2018,01,15,11,22,8.20
2018,01,15,11,23,8.20
2018,01,15,11,24,8.20
2018,01,15,11,25,8.20
2018,01,15,11,26,8.20
2018,01,15,11,27,8.20
2018,01,15,11,28,8.30
2018,01,15,11,29,8.30
2018,01,15,11,30,8.30
2018,01,15,11,31,8.30
2018,01,15,11,32,8.40
2018,01,15,11,33,8.40
2018,01,15,11,34,8.50
2018,01,15,11,35,8.60
2018,01,15,11,36,8.70
2018,01,15,11,37,8.70
2018,01,15,11,38,8.80
2018,01,15,11,39,8.80
2018,01,15,11,40,8.90
2018,01,15,11,41,8.90
2018,01,15,11,42,9.00
2018,01,15,11,43,9.00
2018,01,15,11,44,9.10
2018,01,15,11,45,9.10
2018,01,15,11,46,9.10
2018,01,15,11,47,9.20
2018,01,15,11,48,9.20
2018,01,15,11,49,9.20
2018,01,15,11,50,9.30
2018,01,15,11,51,9.30
2018,01,15,11,52,9.30
2018,01,15,11,53,9.30
2018,01,15,11,54,9.30
2018,01,15,11,55,9.30
2018,01,15,11,56,9.30
2018,01,15,11,57,9.30
2018,01,15,11,58,9.30
2018,01,15,11,59,9.40
2018,01,15,12,00,9.40
2018,01,15,12,01,9.40
2018,01,15,12,02,9.40
2018,01,15,12,03,9.40
2018,01,15,12,04,9.50
2018,01,15,12,05,9.50
2018,01,15,12,06,9.60
2018,01,15,12,07,9.60
2018,01,15,12,08,9.60
2018,01,15,12,09,9.60
2018,01,15,12,10,9.60
2018,01,15,12,11,9.60
2018,01,15,12,12,9.60
2018,01,15,12,13,9.60
2018,01,15,12,14,9.70
2018,01,15,12,15,9.70
2018,01,15,12,16,9.70
2018,01,15,12,17,9.70
2018,01,15,12,18,9.70
2018,01,15,12,19,9.80
2018,01,15,12,20,9.80
2018,01,15,12,21,9.80
2018,01,15,12,22,9.80
2018,01,15,12,23,9.90
2018,01,15,12,24,9.90
2018,01,15,12,25,9.90
2018,01,15,12,26,9.90
2018,01,15,12,27,10.00
2018,01,15,12,28,10.00
2018,01,15,12,29,10.10
2018,01,15,12,30,10.10
2018,01,15,12,31,10.10
2018,01,15,12,32,10.20
2018,01,15,12,33,10.20
2018,01,15,12,34,10.30
2018,01,15,12,35,10.30
2018,01,15,12,36,10.40
2018,01,15,12,37,10.50
2018,01,15,12,38,10.50
2018,01,15,12,39,10.60
2018,01,15,12,40,10.70
2018,01,15,12,41,10.70
2018,01,15,12,42,10.80
2018,01,15,12,43,10.90
2018,01,15,12,44,11.00
2018,01,15,12,45,11.00
2018,01,15,12,46,11.10
2018,01,15,12,47,11.10
2018,01,15,12,48,11.20
2018,01,15,12,49,11.20
2018,01,15,12,50,11.20
2018,01,15,12,51,11.20
2018,01,15,12,52,11.30
2018,01,15,12,53,11.30
2018,01,15,12,54,11.30
2018,01,15,12,55,11.20
2018,01,15,12,56,11.20
2018,01,15,12,57,11.20
2018,01,15,12,58,11.20
2018,01,15,12,59,11.20
2018,01,15,13,00,11.20
2018,01,15,13,01,11.20
2018,01,15,13,02,11.20
2018,01,15,13,03,11.30
2018,01,15,13,04,11.30
2018,01,15,13,05,11.30
2018,01,15,13,06,11.40
2018,01,15,13,07,11.40
2018,01,15,13,08,11.50
2018,01,15,13,09,11.60
2018,01,15,13,10,11.60
2018,01,15,13,11,11.60
2018,01,15,13,12,11.60
2018,01,15,13,13,11.70
2018,01,15,13,14,11.70
2018,01,15,13,15,11.70
2018,01,15,13,16,11.70
2018,01,15,13,17,11.70
2018,01,15,13,18,11.70
2018,01,15,13,19,11.70
2018,01,15,13,20,11.70
2018,01,15,13,21,11.80
2018,01,15,13,22,11.70
2018,01,15,13,23,11.70
2018,01,15,13,24,11.70
2018,01,15,13,25,11.80
2018,01,15,13,26,11.80
2018,01,15,13,27,11.80
2018,01,15,13,28,11.80
2018,01,15,13,29,11.80
2018,01,15,13,30,11.80
2018,01,15,13,31,11.70
2018,01,15,13,32,11.70
2018,01,15,13,33,11.70
2018,01,15,13,34,11.70
2018,01,15,13,35,11.70
2018,01,15,13,36,11.70
2018,01,15,13,37,11.60
2018,01,15,13,38,11.60
2018,01,15,13,39,11.60
2018,01,15,13,40,11.50
2018,01,15,13,41,11.50
2018,01,15,13,42,11.50
2018,01,15,13,43,11.50
2018,01,15,13,44,11.50
2018,01,15,13,45,11.50
2018,01,15,13,46,11.50
2018,01,15,13,47,11.50
2018,01,15,13,48,11.40
2018,01,15,13,49,11.40
2018,01,15,13,50,11.40
2018,01,15,13,51,11.40
2018,01,15,13,52,11.30
2018,01,15,13,53,11.30
2018,01,15,13,54,11.30
2018,01,15,13,55,11.40
2018,01,15,13,56,11.60
2018,01,15,13,57,11.90
2018,01,15,13,58,12.20
2018,01,15,13,59,12.50
2018,01,15,14,00,12.70
2018,01,15,14,01,12.80
2018,01,15,14,02,12.80
2018,01,15,14,03,12.70
2018,01,15,14,04,12.80
2018,01,15,14,05,12.80
2018,01,15,14,06,12.80
2018,01,15,14,07,13.00
2018,01,15,14,08,13.00
2018,01,15,14,09,13.20
2018,01,15,14,10,13.50
2018,01,15,14,11,13.80
2018,01,15,14,12,14.10
2018,01,15,14,13,14.30
2018,01,15,14,14,14.30
2018,01,15,14,15,14.30
2018,01,15,14,16,14.40
2018,01,15,14,17,14.40
2018,01,15,14,18,14.30
2018,01,15,14,19,14.30
2018,01,15,14,20,14.30
2018,01,15,14,21,14.30
2018,01,15,14,22,14.30
2018,01,15,14,23,14.30
2018,01,15,14,24,14.30
2018,01,15,14,25,14.20
2018,01,15,14,26,14.20
2018,01,15,14,27,14.10
2018,01,15,14,28,14.10
2018,01,15,14,29,14.10
2018,01,15,14,30,14.10
2018,01,15,14,31,14.00
2018,01,15,14,32,14.00
2018,01,15,14,33,13.90
2018,01,15,14,34,13.80
2018,01,15,14,35,13.60
2018,01,15,14,36,13.50
2018,01,15,14,37,13.40
2018,01,15,14,38,13.10
2018,01,15,14,39,12.90
2018,01,15,14,40,12.70
2018,01,15,14,41,12.50
2018,01,15,14,42,12.40
2018,01,15,14,43,12.20
2018,01,15,14,44,12.10
2018,01,15,14,45,12.00
2018,01,15,14,46,11.90
2018,01,15,14,47,11.80
2018,01,15,14,48,11.80
2018,01,15,14,49,11.70
2018,01,15,14,50,11.70
2018,01,15,14,51,11.70
2018,01,15,14,52,11.70
2018,01,15,14,53,11.70
2018,01,15,14,54,11.70
2018,01,15,14,55,11.70
2018,01,15,14,56,11.70
2018,01,15,14,57,11.70
2018,01,15,14,58,11.70
2018,01,15,14,59,11.70
2018,01,15,15,00,11.70
2018,01,15,15,01,11.70
2018,01,15,15,02,11.70
2018,01,15,15,03,11.70
2018,01,15,15,04,11.70
2018,01,15,15,05,11.70
2018,01,15,15,06,11.70
2018,01,15,15,07,11.70
2018,01,15,15,08,11.60
2018,01,15,15,09,11.60
2018,01,15,15,10,11.60
2018,01,15,15,11,11.60
2018,01,15,15,12,11.60
2018,01,15,15,13,11.60
2018,01,15,15,14,11.60
2018,01,15,15,15,11.60
2018,01,15,15,16,11.50
2018,01,15,15,17,11.50
2018,01,15,15,18,11.50
2018,01,15,15,19,11.40
2018,01,15,15,20,11.40
2018,01,15,15,21,11.40
2018,01,15,15,22,11.30
2018,01,15,15,23,11.30
2018,01,15,15,24,11.30
2018,01,15,15,25,11.20
2018,01,15,15,26,11.20
2018,01,15,15,27,11.20
2018,01,15,15,28,11.20
2018,01,15,15,29,11.10
2018,01,15,15,30,11.10
2018,01,15,15,31,11.10
2018,01,15,15,32,11.10
2018,01,15,15,33,11.00
2018,01,15,15,34,11.00
2018,01,15,15,35,10.90
2018,01,15,15,36,10.90
2018,01,15,15,37,10.90
2018,01,15,15,38,10.90
2018,01,15,15,39,10.90
2018,01,15,15,40,10.80
2018,01,15,15,41,10.80
2018,01,15,15,42,10.80
2018,01,15,15,43,10.80
2018,01,15,15,44,10.80
2018,01,15,15,45,10.80
2018,01,15,15,46,10.80
2018,01,15,15,47,10.70
2018,01,15,15,48,10.70
2018,01,15,15,49,10.70
2018,01,15,15,50,10.70
2018,01,15,15,51,10.70
2018,01,15,15,52,10.70
2018,01,15,15,53,10.70
2018,01,15,15,54,10.70
2018,01,15,15,55,10.70
2018,01,15,15,56,10.70
2018,01,15,15,57,10.70
2018,01,15,15,58,10.60
2018,01,15,15,59,10.60
2018,01,15,16,00,10.60
2018,01,15,16,01,10.60
2018,01,15,16,02,10.60
2018,01,15,16,03,10.60
2018,01,15,16,04,10.50
2018,01,15,16,05,10.50
2018,01,15,16,06,10.40
2018,01,15,16,07,10.40
2018,01,15,16,08,10.40
2018,01,15,16,09,10.40
2018,01,15,16,10,10.40
2018,01,15,16,11,10.40
2018,01,15,16,12,10.40
2018,01,15,16,13,10.40
2018,01,15,16,14,10.40
2018,01,15,16,15,10.40
2018,01,15,16,16,10.40
2018,01,15,16,17,10.40
2018,01,15,16,18,10.40
2018,01,15,16,19,10.40
2018,01,15,16,20,10.40
2018,01,15,16,21,10.40
2018,01,15,16,22,10.40
2018,01,15,16,23,10.40
2018,01,15,16,24,10.40
2018,01,15,16,25,10.40
2018,01,15,16,26,10.40
2018,01,15,16,27,10.30
2018,01,15,16,28,10.30
2018,01,15,16,29,10.30
2018,01,15,16,30,10.30
2018,01,15,16,31,10.40
2018,01,15,16,32,10.40
2018,01,15,16,33,10.40
2018,01,15,16,34,10.40
2018,01,15,16,35,10.40
2018,01,15,16,36,10.40
2018,01,15,16,37,10.40
2018,01,15,16,38,10.40
2018,01,15,16,39,10.40
2018,01,15,16,40,10.40
2018,01,15,16,41,10.40
2018,01,15,16,42,10.40
2018,01,15,16,43,10.40
2018,01,15,16,44,10.40
2018,01,15,16,45,10.40
2018,01,15,16,46,10.40
2018,01,15,16,47,10.40
2018,01,15,16,48,10.40
2018,01,15,16,49,10.40
2018,01,15,16,50,10.40
2018,01,15,16,51,10.40
2018,01,15,16,52,10.40
2018,01,15,16,53,10.40
2018,01,15,16,54,10.40
2018,01,15,16,55,10.40
2018,01,15,16,56,10.50
2018,01,15,16,57,10.50
2018,01,15,16,58,10.50
2018,01,15,16,59,10.40
2018,01,15,17,00,10.40
2018,01,15,17,01,10.40
2018,01,15,17,02,10.40
2018,01,15,17,03,10.40
2018,01,15,17,04,10.40
2018,01,15,17,05,10.40
2018,01,15,17,06,10.40
2018,01,15,17,07,10.40
2018,01,15,17,08,10.40
2018,01,15,17,09,10.40
2018,01,15,17,10,10.40
2018,01,15,17,11,10.40
2018,01,15,17,12,10.40
2018,01,15,17,13,10.40
2018,01,15,17,14,10.40
2018,01,15,17,15,10.40
2018,01,15,17,16,10.40
2018,01,15,17,17,10.40
2018,01,15,17,18,10.40
2018,01,15,17,19,10.40
2018,01,15,17,20,10.40
2018,01,15,17,21,10.40
2018,01,15,17,22,10.40
2018,01,15,17,23,10.40
2018,01,15,17,24,10.40
2018,01,15,17,25,10.40
2018,01,15,17,26,10.40
2018,01,15,17,27,10.40
2018,01,15,17,28,10.40
2018,01,15,17,29,10.40
2018,01,15,17,30,10.30
2018,01,15,17,31,10.30
2018,01,15,17,32,10.30
2018,01,15,17,33,10.30
2018,01,15,17,34,10.30
2018,01,15,17,35,10.40
2018,01,15,17,36,10.30
2018,01,15,17,37,10.30
2018,01,15,17,38,10.30
2018,01,15,17,39,10.30
2018,01,15,17,40,10.30
2018,01,15,17,41,10.30
2018,01,15,17,42,10.30
2018,01,15,17,43,10.30
2018,01,15,17,44,10.30
2018,01,15,17,45,10.20
2018,01,15,17,46,10.20
2018,01,15,17,47,10.20
2018,01,15,17,48,10.20
2018,01,15,17,49,10.20
2018,01,15,17,50,10.20
2018,01,15,17,51,10.20